| time (UTC) | temp F | wind direction | speed MPH | gust MPH | rain 1hr in | rain 24hr in | rain mn in | humidity % | barometer mb |
| 20260505161609 | 66 | 335 | 1.0 | 4.0 | 0.00 | 0.00 | 0.00 | 68 | 1016.4 |
| 20260505153035 | 64 | 18 | 1.0 | 4.0 | 0.00 | 0.00 | 0.00 | 72 | 1016.3 |
| 20260505151532 | 62 | 64 | 0.0 | 3.0 | 0.00 | 0.00 | 0.00 | 75 | 1016.4 |
| 20260505121608 | 49 | 241 | 0.0 | 3.0 | 0.00 | 0.00 | 0.00 | 94 | 1015.2 |
| 20260505120036 | 50 | 228 | 0.0 | 3.0 | 0.00 | 0.00 | 0.00 | 94 | 1015.2 |
| 20260505114605 | 50 | 208 | 1.0 | 3.0 | 0.00 | 0.00 | 0.00 | 93 | 1015.1 |
| 20260505111532 | 50 | 225 | 0.0 | 3.0 | 0.00 | 0.00 | 0.00 | 92 | 1014.9 |
| 20260505101604 | 52 | 203 | 0.0 | 3.0 | 0.00 | 0.00 | 0.00 | 90 | 1014.5 |
| 20260505100030 | 53 | 247 | 0.0 | 4.0 | 0.00 | 0.00 | 0.00 | 90 | 1014.5 |
| 20260505094530 | 53 | 247 | 0.0 | 3.0 | 0.00 | 0.00 | 0.00 | 89 | 1014.4 |
| 20260505093032 | 54 | 257 | 0.0 | 4.0 | 0.00 | 0.00 | 0.00 | 88 | 1014.3 |
| 20260505091605 | 54 | 220 | 0.0 | 3.0 | 0.00 | 0.00 | 0.00 | 86 | 1014.2 |
| 20260505090031 | 55 | 202 | 0.0 | 3.0 | 0.00 | 0.00 | 0.00 | 85 | 1014.0 |
| 20260505084536 | 55 | 202 | 0.0 | 3.0 | 0.00 | 0.00 | 0.00 | 85 | 1013.9 |
| 20260505083035 | 56 | 157 | 0.0 | 3.0 | 0.00 | 0.00 | 0.00 | 84 | 1013.9 |
| 20260505080033 | 57 | 224 | 0.0 | 4.0 | 0.00 | 0.00 | 0.00 | 80 | 1013.7 |
| 20260505074607 | 58 | 247 | 0.0 | 2.0 | 0.00 | 0.00 | 0.00 | 78 | 1013.6 |
| 20260505073030 | 59 | 247 | 0.0 | 3.0 | 0.00 | 0.00 | 0.00 | 76 | 1013.5 |
| 20260505071533 | 60 | 247 | 0.0 | 2.0 | 0.00 | 0.00 | 0.00 | 74 | 1013.4 |
| 20260505070031 | 63 | 247 | 0.0 | 1.0 | 0.00 | 0.00 | 0.00 | 70 | 1013.3 |
| 20260505064534 | 64 | 243 | 0.0 | 2.0 | 0.00 | 0.00 | 0.00 | 67 | 1013.1 |
| 20260505063034 | 65 | 218 | 2.0 | 5.0 | 0.00 | 0.00 | 0.00 | 66 | 1013.0 |
| 20260505061536 | 65 | 192 | 3.0 | 7.0 | 0.00 | 0.00 | 0.00 | 66 | 1013.0 |
| 20260505060030 | 64 | 191 | 3.0 | 8.0 | 0.00 | 0.00 | 0.00 | 66 | 1013.0 |
| 20260505053036 | 65 | 225 | 0.0 | 3.0 | 0.00 | 0.00 | 0.00 | 63 | 1012.9 |
| 20260505051535 | 66 | 235 | 1.0 | 8.0 | 0.00 | 0.00 | 0.00 | 60 | 1012.8 |
| 20260505041532 | 67 | 225 | 2.0 | 8.0 | 0.00 | 0.00 | 0.00 | 55 | 1012.2 |
| 20260505034529 | 68 | 207 | 3.0 | 9.0 | 0.00 | 0.00 | 0.00 | 52 | 1011.7 |
| 20260505031534 | 70 | 211 | 4.0 | 11.0 | 0.00 | 0.00 | 0.00 | 50 | 1011.3 |
| 20260505030037 | 71 | 208 | 4.0 | 9.0 | 0.00 | 0.00 | 0.00 | 50 | 1010.9 |
| 20260505024605 | 72 | 223 | 1.0 | 7.0 | 0.00 | 0.00 | 0.00 | 51 | 1010.7 |
| 20260505021605 | 75 | 38 | 0.0 | 3.0 | 0.00 | 0.00 | 0.00 | 47 | 1010.5 |
| 20260505020033 | 77 | 113 | 0.0 | 1.0 | 0.00 | 0.00 | 0.00 | 45 | 1010.5 |
| 20260505011530 | 78 | 308 | 0.0 | 4.0 | 0.00 | 0.00 | 0.00 | 46 | 1010.4 |
| 20260505010035 | 78 | 303 | 1.0 | 4.0 | 0.00 | 0.00 | 0.00 | 44 | 1010.4 |
| 20260505004529 | 79 | 308 | 2.0 | 7.0 | 0.00 | 0.00 | 0.00 | 44 | 1010.3 |
| 20260505003035 | 80 | 312 | 1.0 | 5.0 | 0.00 | 0.00 | 0.00 | 43 | 1010.2 |
| 20260505001532 | 80 | 303 | 1.0 | 9.0 | 0.00 | 0.00 | 0.00 | 42 | 1010.1 |
| 20260505000040 | 81 | 307 | 2.0 | 8.0 | 0.00 | 0.00 | 0.00 | 40 | 1010.1 |
| 20260504234531 | 82 | 289 | 2.0 | 9.0 | 0.00 | 0.00 | 0.00 | 38 | 1010.1 |
| 20260504233033 | 83 | 274 | 3.0 | 12.0 | 0.00 | 0.00 | 0.00 | 38 | 1010.0 |
| 20260504231530 | 83 | 277 | 2.0 | 10.0 | 0.00 | 0.00 | 0.00 | 40 | 1010.1 |
| 20260504230036 | 82 | 304 | 1.0 | 5.0 | 0.00 | 0.00 | 0.00 | 42 | 1010.2 |
| 20260504223035 | 82 | 304 | 2.0 | 8.0 | 0.00 | 0.00 | 0.00 | 41 | 1010.5 |
| 20260504221536 | 82 | 300 | 2.0 | 9.0 | 0.00 | 0.00 | 0.00 | 41 | 1010.5 |
| 20260504220029 | 82 | 295 | 2.0 | 8.0 | 0.00 | 0.00 | 0.00 | 40 | 1010.7 |
| 20260504214531 | 83 | 295 | 2.0 | 8.0 | 0.00 | 0.00 | 0.00 | 40 | 1010.8 |
| 20260504213142 | 83 | 307 | 2.0 | 8.0 | 0.00 | 0.00 | 0.00 | 39 | 1010.9 |
| 20260504210032 | 82 | 331 | 1.0 | 8.0 | 0.00 | 0.00 | 0.00 | 40 | 1011.1 |
| 20260504204605 | 82 | 342 | 2.0 | 7.0 | 0.00 | 0.00 | 0.00 | 40 | 1011.3 |
| 20260504201534 | 82 | 3 | 3.0 | 9.0 | 0.00 | 0.00 | 0.00 | 39 | 1011.6 |
| 20260504200032 | 81 | 341 | 2.0 | 7.0 | 0.00 | 0.00 | 0.00 | 40 | 1011.7 |
| 20260504194643 | 82 | 346 | 2.0 | 9.0 | 0.00 | 0.00 | 0.00 | 40 | 1011.7 |
| 20260504193142 | 81 | 286 | 0.0 | 5.0 | 0.00 | 0.00 | 0.00 | 42 | 1011.9 |
| 20260504191529 | 79 | 102 | 3.0 | 8.0 | 0.00 | 0.00 | 0.00 | 43 | 1012.0 |
| 20260504190106 | 79 | 39 | 2.0 | 6.0 | 0.00 | 0.00 | 0.00 | 46 | 1012.2 |
| 20260504184536 | 78 | 5 | 1.0 | 5.0 | 0.00 | 0.00 | 0.00 | 48 | 1012.2 |
| 20260504183036 | 77 | 88 | 1.0 | 7.0 | 0.00 | 0.00 | 0.00 | 48 | 1012.4 |
| 20260504181534 | 77 | 124 | 2.0 | 8.0 | 0.00 | 0.00 | 0.00 | 49 | 1012.5 |
| 20260504180140 | 75 | 130 | 2.0 | 6.0 | 0.00 | 0.00 | 0.00 | 51 | 1012.5 |
| 20260504174531 | 74 | 110 | 2.0 | 7.0 | 0.00 | 0.00 | 0.00 | 52 | 1012.6 |
| 20260504173034 | 73 | 66 | 1.0 | 7.0 | 0.00 | 0.00 | 0.00 | 54 | 1012.7 |
| 20260504171606 | 73 | 73 | 1.0 | 4.0 | 0.00 | 0.00 | 0.00 | 54 | 1012.7 |